User: anonymous   Login
Location: Griffin Ranch
(33.6186°N, 110.6622°W)
Time: 04:58:43
(UTC-07:00)
Language:

Cosmos 1812 - Orbit

View from above orbital plane
View from above orbital plane
View from above satellite
View from above satellite

Ground track
Ground track

The orbit data is extracted from the following two-line orbital elements,

1 17295U 87003A   16238.68962975  .00001255  00000-0  67657-4 0  9992
2 17295  82.5125  75.5962 0005039  77.7902 282.3893 15.13909181614242
Epoch (UTC): 25 August 2016 16:33:04
Eccentricity: 0.0005039
inclination: 82.5125°
perigee height: 521 km
apogee height: 528 km
right ascension of ascending node: 75.5962°
argument of perigee: 77.7902°
revolutions per day: 15.13909181
mean anomaly at epoch: 282.3893°
orbit number at epoch: 61424

The dashed part of the orbit path shows where the satellite is in the earth's shadow,  

DLR